[Iaude] MPEC C08: 2024 BP4 [a=2.41,e=0.61,i=0.2,H=26.9]
    mpec at marsden.cfa.harvard.edu 
    mpec at marsden.cfa.harvard.edu
       
    Thu Feb  1 10:43:55 EST 2024
    
    
  
M.P.E.C. 2024-C08                              Issued 2024 February 1, 15:41 UT
     The Minor Planet Electronic Circulars contain information on unusual
         minor planets, routine data on comets and natural satellites,
         and occasional editorial announcements.  They are published
    on behalf of Division F of the International Astronomical Union by the
          Minor Planet Center, Smithsonian Astrophysical Observatory,
                          Cambridge, MA 02138, U.S.A.
			  
             Prepared using the Tamkin Foundation Computer Network
                              MPC at CFA.HARVARD.EDU
            URL https://www.minorplanetcenter.net/    ISSN 1523-6714
                                    2024 BP4                                    
Observations:
     K24B04P*1C2024 01 19.20957407 35 41.183+25 57 07.13         20.39GVEC008G96
     K24B04P 1C2024 01 19.21518407 35 44.578+25 57 07.81         20.53GVEC008G96
     K24B04P 1C2024 01 19.22078907 35 48.037+25 57 08.32         21.29GVEC008G96
     K24B04P KC2024 01 19.24017207 35 59.892+25 57 12.28         20.26GVEC008I52
     K24B04P KC2024 01 19.24169107 36 00.803+25 57 12.02         20.78GVEC008I52
     K24B04P KC2024 01 19.24320507 36 01.735+25 57 12.28         21.25GVEC008I52
     K24B04P KC2024 01 19.24471307 36 02.675+25 57 12.31         20.85GVEC008I52
     K24B04P KC2024 01 20.41372107 50 55.180+25 54 10.73         20.60GVEC008I52
     K24B04P KC2024 01 20.41583207 50 56.972+25 54 09.18         20.63GVEC008I52
     K24B04P 1C2024 01 20.41939907 50 59.856+25 54 06.37         20.77GVEC008G96
     K24B04P 1C2024 01 20.41981407 51 00.220+25 54 06.44         21.52GVEC008G96
     K24B04P KC2024 01 20.42006507 51 00.446+25 54 06.30         20.26GVEC008I52
     K24B04P 1C2024 01 20.42023007 51 00.594+25 54 06.26         20.83GVEC008G96
     K24B04P 1C2024 01 20.42064507 51 00.914+25 54 05.87         20.17GVEC008G96
Observer details:
G96 Mt. Lemmon Survey.  Observer A. R. Gibbs.  Measurers T. Beuden, V. F.
    Carvajal, D. Fay, J. B. Fazekas, D. C. Fuls, A. R. Gibbs, A. D. Grauer, H.
    Groeller, J. K. Hogan, R. A. Kowalski, S. M. Larson, G. J. Leonard, D.
    Rankin, R. L. Seaman, F. C. Shelly, K. W. Wierzchos.  1.5-m reflector +
    10K CCD.
I52 Steward Observatory, Mt. Lemmon Station.  Observer R. A. Kowalski.
    Measurers E. C. Beshore, D. Fay, J. B. Fazekas, D. C. Fuls, A. R. Gibbs,
    A. D. Grauer, H. Groeller, J. K. Hogan, R. A. Kowalski, S. M. Larson, G.
    J. Leonard, D. Rankin, R. L. Seaman, F. C. Shelly, K. W. Wierzchos.  1.0-m
    prime focus + CCD.
Orbital elements:
2024 BP4                                                 Earth MOID = 0.0007 AU
Epoch 2023 Sept. 13.0 TT = JDT 2460200.5                Veres                   
M 317.78467              (2000.0)            P               Q                  
n   0.26349066     Peri.  156.55785     -0.93370263     -0.35804938             
a   2.4096792      Node     2.46172     +0.32783785     -0.85512028             
e   0.6100313      Incl.    0.23988     +0.14395046     -0.37492660             
P   3.74           H   26.95          G   0.15           U   9                  
Residuals in seconds of arc
240119 G96  0.4+  0.8+    240119 I52  0.1-  0.1-    240120 G96  0.2-  0.0
240119 G96  0.2-  0.3+    240119 I52  0.2+  0.3-    240120 I52  0.0   0.0
240119 G96  0.1+  0.4-    240120 I52  0.1-  0.4+    240120 G96  0.2+  0.1+
240119 I52  0.1+  0.3+    240120 I52  0.5+  0.2+    240120 G96  0.1-  0.1-
240119 I52  0.2-  0.2-    240120 G96  0.5-  0.4-
Ephemeris:
2024 BP4                 a,e,i = 2.41, 0.61, 0                   q = 0.9397
Date    TT    R. A. (2000) Decl.     Delta      r    Elong.  Phase     V
2024 01 02    06 34 45.8 +24 51 59   0.1658  1.1488   176.7     2.8    23.6
...
2024 01 17    07 15 57.5 +25 51 19   0.06628 1.0491   170.4     9.0    21.8
...
2024 01 25    10 05 44.4 +21 02 34   0.02372 1.0062   156.5    22.9    19.9
...
2024 01 31    15 19 09.2 -12 14 59   0.03117 0.9800    79.7    98.5    22.9
2024 02 01    15 42 56.2 -14 38 34   0.03612 0.9762    74.5   103.5    23.5
2024 02 02    16 01 13.1 -16 20 46   0.04139 0.9725    70.8   106.9    24.0
...
2024 02 08    16 56 55.4 -20 41 34   0.07565 0.9545    63.1   112.8    25.6
...
2024 02 16    17 25 46.4 -22 19 16   0.1230  0.9411    64.4   108.9    26.4
...
2024 03 02    17 54 14.5 -23 17 16   0.2093  0.9508    72.9    95.0    26.8
M. P. C. Staff               (C) Copyright 2024 MPC           M.P.E.C. 2024-C08
    
    
More information about the Iaude
mailing list